DLH337 EVRA-ULAA

Flight info

Callsign DLH337
Flight time N/A
Altitude 37000
Route AMOLI DCT VALGA DCT TITOV T635 PIRUS/K0832F370 T635 ADOGI T693 DISUP T821 ARGIP
Aircraft B38M/M-SDE1FGHILORVWXY/HB1

Departure

Time N/A
Airport Riga International Airport (EVRA)

Arrival

Time 2026-04-15 11:49
Airport Talagi Airport (ULAA)
Time Latitude Longitude Altitude Speed Heading
2026-04-15 11:27 64.60387 40.64255 458 ft 165 kts 97°
2026-04-15 11:27 64.60248 40.67065 390 ft 183 kts 97°
2026-04-15 11:27 64.60089 40.70306 351 ft 206 kts 97°
2026-04-15 11:27 64.59933 40.73495 427 ft 183 kts 97°
2026-04-15 11:28 64.59829 40.76675 497 ft 227 kts 94°
2026-04-15 11:28 64.60327 40.80493 918 ft 267 kts 57°
2026-04-15 11:28 64.61643 40.83511 2330 ft 273 kts 43°
2026-04-15 11:28 64.63573 40.85305 2442 ft 329 kts
2026-04-15 11:29 64.65910 40.84617 3376 ft 356 kts 346°
2026-04-15 11:29 64.68006 40.82236 3762 ft 322 kts 326°
2026-04-15 11:29 64.69361 40.78298 3453 ft 304 kts 297°
2026-04-15 11:29 64.69853 40.73696 3207 ft 283 kts 275°
2026-04-15 11:30 64.69836 40.69241 2982 ft 266 kts 266°
2026-04-15 11:30 64.69843 40.65031 2733 ft 253 kts 273°
2026-04-15 11:30 64.70054 40.61069 2513 ft 240 kts 277°
2026-04-15 11:30 64.70338 40.57322 2296 ft 228 kts 280°
2026-04-15 11:31 64.70670 40.53843 2183 ft 212 kts 282°
2026-04-15 11:31 64.71056 40.50377 2425 ft 228 kts 284°
2026-04-15 11:31 64.71321 40.46748 2961 ft 222 kts 275°
2026-04-15 11:31 64.71445 40.43184 3138 ft 219 kts 274°
2026-04-15 11:32 64.71580 40.39641 3209 ft 219 kts 274°
2026-04-15 11:32 64.71726 40.36100 3235 ft 219 kts 275°
2026-04-15 11:32 64.71877 40.32559 3247 ft 219 kts 275°
2026-04-15 11:32 64.72032 40.29016 3251 ft 219 kts 275°
2026-04-15 11:33 64.72223 40.25483 3239 ft 219 kts 281°
2026-04-15 11:33 64.72916 40.22312 3269 ft 220 kts 302°
2026-04-15 11:33 64.73836 40.19448 3260 ft 220 kts 307°
2026-04-15 11:33 64.74757 40.16586 3255 ft 220 kts 306°
2026-04-15 11:34 64.75678 40.13723 3252 ft 220 kts 308°
2026-04-15 11:34 64.76898 40.11608 3224 ft 221 kts 335°
2026-04-15 11:34 64.78387 40.11291 3250 ft 220 kts
2026-04-15 11:34 64.79761 40.12773 3269 ft 218 kts 35°
2026-04-15 11:35 64.80716 40.15467 3254 ft 215 kts 60°
2026-04-15 11:35 64.81067 40.18837 3254 ft 213 kts 86°
2026-04-15 11:35 64.80745 40.22200 3193 ft 213 kts 112°
2026-04-15 11:35 64.79815 40.24823 3066 ft 210 kts 140°
2026-04-15 11:36 64.78472 40.26102 3019 ft 211 kts 167°
2026-04-15 11:36 64.77009 40.26192 3022 ft 210 kts 180°
2026-04-15 11:36 64.75548 40.26065 3008 ft 210 kts 181°
2026-04-15 11:36 64.74086 40.25959 3000 ft 210 kts 182°
2026-04-15 11:37 64.72624 40.25704 2999 ft 210 kts 183°
2026-04-15 11:37 64.71212 40.25029 2973 ft 213 kts 199°
2026-04-15 11:37 64.70033 40.22951 2997 ft 215 kts 224°
2026-04-15 11:37 64.69334 40.19866 2997 ft 217 kts 250°
2026-04-15 11:38 64.69260 40.16347 2997 ft 219 kts 275°
2026-04-15 11:38 64.69834 40.13069 2997 ft 220 kts 301°
2026-04-15 11:38 64.70951 40.10669 2996 ft 220 kts 327°
2026-04-15 11:38 64.72406 40.09645 3003 ft 219 kts 352°
2026-04-15 11:39 64.73921 40.09626 3011 ft 218 kts
2026-04-15 11:39 64.75436 40.09833 3003 ft 217 kts
2026-04-15 11:39 64.76943 40.10086 3001 ft 217 kts
2026-04-15 11:39 64.78453 40.10362 3001 ft 217 kts
2026-04-15 11:40 64.79924 40.11085 2976 ft 217 kts 22°
2026-04-15 11:40 64.81115 40.13202 3001 ft 216 kts 47°
2026-04-15 11:40 64.81811 40.16266 3003 ft 213 kts 72°
2026-04-15 11:40 64.81889 40.19703 3001 ft 212 kts 96°
2026-04-15 11:41 64.81347 40.22875 3001 ft 210 kts 121°
2026-04-15 11:41 64.80294 40.25214 3000 ft 210 kts 145°
2026-04-15 11:41 64.78918 40.26315 3001 ft 211 kts 168°
2026-04-15 11:41 64.77475 40.26406 3010 ft 210 kts 180°
2026-04-15 11:42 64.76016 40.26241 3003 ft 210 kts 182°
2026-04-15 11:42 64.74554 40.26016 2999 ft 210 kts 183°
2026-04-15 11:42 64.73095 40.25765 2998 ft 210 kts 183°
2026-04-15 11:42 64.71652 40.25467 2986 ft 202 kts 185°
2026-04-15 11:43 64.70271 40.25122 2990 ft 197 kts 185°
2026-04-15 11:43 64.68906 40.24775 2982 ft 196 kts 185°
2026-04-15 11:43 64.67552 40.24425 2820 ft 196 kts 185°
2026-04-15 11:43 64.66194 40.24073 2663 ft 196 kts 185°
2026-04-15 11:44 64.64836 40.23797 2535 ft 196 kts 180°
2026-04-15 11:44 64.63560 40.24805 2293 ft 196 kts 149°
2026-04-15 11:44 64.62695 40.27167 2347 ft 184 kts 126°
2026-04-15 11:44 64.62185 40.29750 2411 ft 167 kts 111°
2026-04-15 11:45 64.61953 40.32325 2339 ft 159 kts 101°
2026-04-15 11:45 64.61814 40.34868 2256 ft 158 kts 98°
2026-04-15 11:45 64.61693 40.37420 2189 ft 159 kts 97°
2026-04-15 11:45 64.61570 40.39982 2097 ft 158 kts 97°
2026-04-15 11:46 64.61448 40.42495 1993 ft 158 kts 97°
2026-04-15 11:46 64.61325 40.45025 1833 ft 157 kts 97°
2026-04-15 11:46 64.61202 40.47556 1684 ft 155 kts 97°
2026-04-15 11:46 64.61086 40.49933 1553 ft 139 kts 97°
2026-04-15 11:47 64.60983 40.52044 1345 ft 126 kts 97°
2026-04-15 11:47 64.60886 40.54029 1162 ft 122 kts 97°
2026-04-15 11:47 64.60790 40.56005 1041 ft 123 kts 97°
2026-04-15 11:47 64.60693 40.57984 911 ft 123 kts 97°
2026-04-15 11:48 64.60597 40.59963 766 ft 123 kts 97°
2026-04-15 11:48 64.60500 40.61943 627 ft 123 kts 97°
2026-04-15 11:48 64.60403 40.63925 479 ft 123 kts 97°
2026-04-15 11:48 64.60307 40.65896 341 ft 123 kts 97°
2026-04-15 11:49 64.60211 40.67870 187 ft 122 kts 97°
2026-04-15 11:49 64.60115 40.69813 82 ft 114 kts 97°
2026-04-15 11:49 64.60051 40.71033 74 ft 30 kts 95°
2026-04-15 11:49 64.60004 40.71326 74 ft 9 kts 176°
2026-04-15 11:50 64.59926 40.71309 74 ft 14 kts 187°
2026-04-15 11:50 64.59853 40.71288 74 ft 18 kts 186°
2026-04-15 11:50 64.59729 40.71299 74 ft 10 kts 135°
2026-04-15 11:50 64.59718 40.71427 74 ft 11 kts 95°
2026-04-15 11:51 64.59694 40.71627 74 ft 11 kts 136°
2026-04-15 11:51 64.59666 40.71648 74 ft 0 kts 186°